Location: Briaucourt
(47.8167°N, 6.2500°E)
Time: 00:23:47
(UTC+00:00)

Daily predictions for brighter satellites

Satellite Brightness Start Highest point End
(mag) Time Altitude Azimuth Time Altitude Azimuth Time Altitude Azimuth
CZ-4C R/B 4.5 01:24:49 28° NE 01:24:49 28° NE 01:29:56 10° E
ATLAS 2AS CENTAUR R/B 4.4 02:18:40 25° N 02:18:40 25° N 02:24:30 10° NE
CZ-2C R/B 4.3 02:36:01 10° NNE 02:38:50 26° ENE 02:38:50 26° ENE
Cosmos 2322 Rocket 4.3 02:51:36 17° SE 02:51:36 17° SE 02:52:50 10° SE
Cosmos 2082 Rocket 3.9 02:51:57 23° N 02:51:57 23° N 02:54:20 10° NNE
Cosmos 2219 Rocket 4.2 02:47:06 12° N 02:51:08 25° NE 02:55:46 10° E
Lacrosse 5 4.2 02:56:07 16° SE 02:56:07 16° SE 02:57:06 10° SE
ARIANE 5 R/B 3.9 02:49:17 10° NNE 02:52:07 33° NE 02:52:07 33° NE
Cosmos 2360 Rocket 2.8 02:55:59 52° ENE 02:55:59 52° ENE 03:01:19 10° SE
Lacrosse 5 rocket 3.7 03:03:52 21° NNE 03:03:52 21° NNE 03:05:39 10° NE
Cosmos 2218 Rocket 4.2 02:59:57 10° N 03:06:22 72° E 03:12:43 10° SSE
Cosmos 2333 Rocket 3.5 03:03:17 16° N 03:07:20 37° NE 03:12:40 10° ESE
FENGYUN 3A 4.4 03:03:46 10° NNE 03:09:05 51° E 03:10:26 41° SE
CZ-4C R/B 3.0 03:10:03 42° NNW 03:12:52 75° NE 03:21:16 10° SE
Cosmos 1346 Rocket 4.4 03:19:36 33° ENE 03:19:36 33° ENE 03:22:29 10° NNE
COSMOS 2455 3.3 03:26:17 48° NNW 03:26:17 48° NNW 03:31:22 10° NNE
Cosmos 1953 3.6 03:27:39 38° ESE 03:27:39 38° ESE 03:30:47 10° SSE
Cosmos 773 Rocket 4.3 03:30:38 57° N 03:30:38 57° N 03:34:56 10° NNE
ISS -1.2 03:32:54 20° ESE 03:32:54 20° ESE 03:34:37 10° E
APEX 4.1 03:32:10 63° S 03:32:59 75° ESE 03:37:54 10° NNE
Cosmos 1455 Rocket 4.5 03:29:34 10° N 03:33:45 38° ENE 03:37:53 10° SE
Cosmos 158 Rocket 4.2 03:39:55 37° S 03:41:47 64° ESE 03:46:42 10° NNE
SL-27 R/B 4.4 03:44:09 23° NNE 03:44:09 23° NNE 03:45:35 10° NNE
BREEZE-M DEB (TANK) 3.9 03:45:32 22° ESE 03:45:32 22° ESE 03:46:25 10° E
ALOS 2.1 03:41:52 10° NNE 03:46:34 86° WNW 03:46:48 81° SW
Cosmos 1959 Rocket 4.3 03:40:47 10° NNW 03:46:48 62° W 03:52:50 10° S
In-Cosmos 22 3.9 03:47:22 64° SW 03:48:07 75° WNW 03:53:28 10° N
Cosmos 1975 Rocket 4.0 03:44:48 10° SSE 03:49:05 49° E 03:53:25 10° NNE
Cosmos 864 Rocket 4.4 03:43:40 10° NNW 03:49:46 60° W 03:55:53 10° S
CZ-4B R/B 3.4 03:47:36 10° N 03:52:49 68° WNW 03:53:31 60° WSW
METEOR-M 4.2 03:48:36 10° NNE 03:53:58 75° ESE 03:59:18 10° S
Meteor 1-21 4.3 03:54:55 50° WNW 03:54:55 50° WNW 04:00:11 10° N
PAYLOAD A 4.1 03:50:09 10° N 03:55:12 57° WNW 03:55:22 56° WNW
Cosmos 2366 rocket 4.1 03:49:56 10° NNW 03:56:05 53° W 04:02:13 10° SSW
ATLAS CENTAUR R/B 3.7 03:58:05 14° NNW 03:58:05 14° NNW 03:59:57 10° N
CZ-2C R/B 3.2 03:57:18 10° N 04:00:02 48° N 04:00:02 48° N
USA 276 3.1 04:03:15 44° ESE 04:03:15 44° ESE 04:05:49 10° ENE
Cosmos 1484 Rocket 2.7 04:00:12 10° NNE 04:04:02 84° E 04:05:22 40° S
USA 305 3.1 04:05:38 48° SSW 04:06:31 63° SE 04:10:41 10° ENE
PSLV R/B 3.5 04:02:22 10° NNE 04:06:47 84° ESE 04:11:01 11° SSW
Cosmos 1833 4.1 04:04:12 28° SSW 04:07:20 84° WNW 04:13:00 10° NNE
Cosmos 2084 3.4 04:10:14 58° W 04:10:40 61° SW 04:15:05 10° SSE
ATLAS 2AS CENTAUR R/B 4.4 04:06:05 11° NW 04:12:07 27° NNE 04:18:02 10° ENE
COSMOS 2428 3.0 04:06:31 10° NNW 04:12:13 67° ENE 04:17:55 10° SE
SL-4 R/B 2.9 04:13:17 34° SSW 04:13:17 34° SSW 04:16:37 10° SSE
Cosmos 1538 Rocket 4.0 04:11:17 33° SW 04:13:39 65° WNW 04:19:01 10° NNE
CZ-2C R/B 3.8 04:09:24 10° SE 04:14:39 46° ENE 04:19:59 10° N
Cosmos 2333 4.1 04:13:03 13° NNW 04:18:15 68° WSW 04:23:59 10° SSE
Cosmos 44 Rocket 3.5 04:14:45 18° NNW 04:18:25 70° NE 04:23:15 10° SE
CZ-2C R/B 3.0 04:14:10 10° N 04:18:12 34° WNW 04:18:12 34° WNW
SKYMED 2 4.3 04:19:46 10° SSE 04:24:00 55° ENE 04:28:15 10° N
Landsat 5 4.3 04:20:18 10° SE 04:24:09 50° ENE 04:28:11 10° N
Meteor 1-16 Rocket 4.3 04:24:50 10° NNW 04:29:58 44° W 04:34:59 10° SSW
YAOGAN 6 3.5 04:27:06 10° NNE 04:30:33 48° E 04:34:01 10° S
Cosmos 2322 Rocket 4.0 04:33:33 14° SW 04:33:33 14° SW 04:34:40 10° SW
Nadezhda 3 Rocket 3.9 04:25:54 10° SSW 04:32:03 75° W 04:38:16 10° N
CZ-4C R/B 4.3 04:28:41 10° SE 04:32:04 42° ENE 04:35:26 10° N
ARIANE 5 R/B 3.8 04:29:12 10° NNW 04:32:26 21° NW 04:32:26 21° NW
Cosmos 1900 4.2 04:30:01 19° SW 04:33:33 78° NW 04:38:28 10° NE
Cosmos 1626 2.5 04:33:47 39° W 04:33:56 39° WNW 04:37:26 10° N
Lacrosse 5 3.6 04:35:23 16° SW 04:35:23 16° SW 04:37:27 10° SSW
Cosmos 2082 Rocket 4.2 04:33:49 11° NW 04:34:43 12° NNW 04:36:40 10° N
Cosmos 2219 Rocket 2.1 04:30:00 10° NNW 04:35:38 70° WSW 04:41:15 10° SSE
SL-16 R/B 4.5 04:31:51 10° N 04:35:58 20° NE 04:40:05 10° E
USA 307 2.8 04:34:36 28° WSW 04:36:45 87° SE 04:40:57 10° ENE
SJ-12 4.3 04:32:44 10° NNE 04:36:47 64° ESE 04:40:49 10° S
Cosmos 1818 3.6 04:32:39 17° NW 04:36:53 64° WSW 04:42:15 10° SSE
USA 306 2.8 04:35:45 29° WSW 04:37:54 86° NNW 04:42:09 10° ENE
Cosmos 2360 Rocket 3.0 04:37:54 25° WNW 04:39:29 28° WSW 04:44:13 10° SSW
Cosmos 1821 Rocket 4.1 04:34:31 10° NNW 04:40:30 51° W 04:46:23 10° SSW
Lacrosse 5 rocket 3.1 04:39:28 17° NW 04:41:35 24° N 04:45:18 10° NE
NOSS 0 Rocket 4.2 04:39:50 10° NNW 04:46:01 72° ENE 04:52:09 10° SE
Cosmos 2237 Rocket 3.2 04:41:17 10° NNW 04:46:49 48° NE 04:52:17 10° SE
Cosmos 1934 Rocket 3.9 04:42:31 10° N 04:48:39 81° W 04:54:49 10° S
Cosmos 1025 Rocket 2.9 04:44:50 10° SSW 04:49:06 63° WNW 04:53:23 10° N
Envisat 3.2 04:44:32 10° NNE 04:49:39 76° ESE 04:54:44 10° S
Cosmos 2056 Rocket 3.6 04:45:15 10° NNW 04:50:29 83° ENE 04:55:46 10° SSE
ERBS 3.0 04:48:44 12° SSW 04:51:40 51° SE 04:54:51 10° ENE
Cosmos 2333 Rocket 2.6 04:46:16 10° NW 04:51:42 43° WSW 04:57:06 10° S
Cosmos 923 Rocket 3.9 04:47:26 10° SSW 04:52:36 66° WNW 04:57:47 10° NNE
Cosmos 1680 Rocket 3.5 04:48:44 10° SSW 04:53:59 83° WNW 04:59:18 10° NNE
Cosmos 1346 Rocket 4.1 04:55:09 20° WNW 04:55:13 20° WNW 04:58:16 10° NNW
USA 308 2.9 04:56:49 18° WSW 04:59:56 72° NNW 05:04:11 10° ENE
Cosmos 1455 3.8 04:56:53 10° N 05:00:22 36° ENE 05:03:49 10° SE
CZ-4C R/B 3.7 04:55:17 12° WNW 05:01:17 34° WSW 05:08:37 10° S
Cosmos 1953 3.8 05:03:36 17° W 05:03:36 17° W 05:05:42 10° SW
H-2A R/B 2.6 05:00:01 10° N 05:03:47 67° WNW 05:07:29 10° SSW
Meteor 1-31 Rocket 2.6 05:02:46 10° N 05:06:34 76° WNW 05:10:20 10° SSW
ISS -3.8 05:05:54 16° WSW 05:08:27 78° NNW 05:11:50 10° ENE
Cosmos 1441 Rocket 3.7 05:05:11 10° SW 05:08:36 34° WNW 05:12:03 10° N
Cosmos 1300 3.3 05:05:24 10° NNW 05:08:51 33° W 05:12:17 10° SSW
Cosmos 1536 Rocket 3.5 05:05:07 10° S 05:09:30 84° W 05:13:54 10° N
CZ-4B R/B 3.6 05:06:45 10° N 05:10:25 67° WNW 05:14:10 10° SSW
Cosmos 1455 Rocket 4.1 05:07:49 10° NW 05:11:22 23° W 05:14:52 10° SW
Meteor 2-5 Rocket 3.6 05:06:04 10° SSW 05:11:36 73° WNW 05:17:14 10° N
COSMO-SKYMED 1 2.8 05:07:53 10° S 05:12:05 49° W 05:16:20 10° NNW
COSMOS 2455 4.5 05:09:27 12° WNW 05:12:51 18° NNW 05:16:48 10° NNE
Cosmos 2322 4.3 05:08:03 10° NW 05:13:07 34° WSW 05:18:08 10° SSW
USA 234 3.3 05:08:04 10° NE 05:14:38 86° SE 05:21:12 10° SW
COSMOS 2487 3.3 05:12:03 10° WSW 05:14:53 26° WNW 05:17:47 10° N
SL-27 R/B 4.5 05:17:40 11° NW 05:17:44 11° NW 05:18:32 10° NW
Cosmos 1371 Rocket 4.2 05:17:23 10° NNW 05:22:23 49° WSW 05:27:20 10° S
SL-14 R/B 4.4 05:19:40 10° SW 05:22:49 23° WNW 05:25:56 10° NNW
Cosmos 2112 Rocket 4.1 05:17:48 10° SW 05:22:57 57° WNW 05:28:11 10° NNE
Meteor 2-10 Rocket 3.6 05:18:08 10° NNW 05:23:01 51° W 05:27:51 10° S
ALOS 4.0 05:21:07 10° NNW 05:23:15 13° WNW 05:25:16 10° W
Cosmos 1606 Rocket 4.2 05:19:21 10° N 05:23:43 59° ENE 05:28:00 10° SSE
Cosmos 1544 Rocket 4.4 05:22:17 10° NNW 05:26:02 28° W 05:29:43 10° SSW
Meteor 1-4 Rocket 3.5 05:24:16 10° NW 05:27:10 25° W 05:30:05 10° SSW
Cosmos 1975 Rocket 4.4 05:24:01 10° WSW 05:27:15 19° WNW 05:30:30 10° NNW
GEOS 3 Rocket 4.2 05:23:26 10° NE 05:28:33 63° SE 05:33:35 10° SSW
Meteor 2-20 Rocket 4.4 05:25:22 10° SSW 05:31:28 76° W 05:37:36 10° N
Cosmos 1624 Rocket 4.3 05:26:27 10° NNW 05:31:33 46° WSW 05:36:33 10° S
IRAS Rocket 4.4 05:27:59 10° S 05:33:30 54° WSW 05:39:00 10° NNW
Meteor PRIRODA 3.7 05:31:19 10° NNE 05:35:02 87° ESE 05:38:42 10° SSW
Meteor 1-24 Rocket 3.7 05:30:59 10° SSW 05:36:14 55° WNW 05:41:41 10° N
Cosmos 1437 3.9 05:35:17 10° N 05:37:44 37° ENE 05:40:10 10° SE
USA 276 2.3 05:35:46 10° W 05:38:52 59° N 05:41:58 10° ENE
CZ-4B R/B 2.4 05:36:03 10° SSE 05:39:05 47° ENE 05:42:13 10° N
